Location: Malanoce
(44.2500°N, 7.4667°E)
Time: 08:04:51
(UTC+00:00)

BlueWalker 3 - Pass Details

Date: 27 January 2026
Orbit: 450 x 461 km, 53.2° (Epoch: 11 February)

Event Time Altitude Azimuth Distance (km) Brightness Sun altitude
Rises 17:00:39 0° 254° (WSW) 2,452 8.2 -5.4°
Reaches altitude 10° 17:02:52 10° 262° (W) 1,581 6.1 -5.8°
Maximum altitude 17:06:15 41° 334° (NNW) 665 2.6 -6.4°
Drops below altitude 10° 17:09:39 10° 46° (NE) 1,584 3.9 -6.9°
Enters shadow 17:10:09 - 49° (NE) 1,779 4.1 -7.0°
